Find Starlink 32013

NORAD ID: 60103 Int'l Des: 2024-117 Owner: SPXS Country: US Constellation: starlink operational
LEOCIRCULAR

Current View

Loading 3D Globe...

About Starlink 32013

Starlink 32013 (NORAD 60103) is a starlink constellation satellite (v2 mini) launched Jun 23, 2024 by SPXS of US. It operates in LEO, CIRCULAR orbit with a mass of 730.00 kg.

About Starlink 32013

Description loading...

Upcoming Passes

Passes for default location (London). Set your location on the main map for personalized predictions.

Altitude History

Loading altitude history...

Two-Line Element Set

1 60103U 24117N 26170.57695306 -.00002105 00000-0 -59003-4 0 9993
2 60103 53.1608 284.0275 0001050 89.8187 270.2934 15.30185213112482
Epoch: Jun 19, 2026 • Age: 46 hours

Current Status

Altitude 475.3 km
Velocity 7.63 km/s
Sub-Earth Point 15.26°N, 153.58°W
Launch Date Jun 23, 2024
Age 1.9 years
Type internet

Technical Details

Classification Payload
Mass 730.00 kg
Dry Mass 700.00 kg
Total Mass 730.00 kg
Length 0.30 m
Diameter 4.10 m
Span 29.00 m
Shape Box + pan
Manufacturer SPXS
Bus Type Starlink V2M
Phase Status In Orbit
Owner/State SPXS/US

Most Searched